[Iaude] MPEC G190: 2024 GF5 [a=1.71,e=0.40,i=8.6,H=27.2]
    mpec at cfa.harvard.edu 
    mpec at cfa.harvard.edu
       
    Sat Apr 13 10:55:29 EDT 2024
    
    
  
M.P.E.C. 2024-G190                               Issued 2024 April 13, 14:54 UT
     The Minor Planet Electronic Circulars contain information on unusual
         minor planets, routine data on comets and natural satellites,
         and occasional editorial announcements.  They are published
    on behalf of Division F of the International Astronomical Union by the
          Minor Planet Center, Smithsonian Astrophysical Observatory,
                          Cambridge, MA 02138, U.S.A.
			  
             Prepared using the Tamkin Foundation Computer Network
                              MPC at CFA.HARVARD.EDU
            URL https://www.minorplanetcenter.net/    ISSN 1523-6714
                                    2024 GF5                                    
Observations:
     K24G05F*1C2024 04 12.25927011 18 14.404+01 06 54.47         21.28GVEG190G96
     K24G05F 1C2024 04 12.26489511 18 19.152+01 08 05.89         21.17GVEG190G96
     K24G05F 1C2024 04 12.27615011 18 28.667+01 10 30.29         22.03GVEG190G96
     K24G05F KC2024 04 12.35170311 19 34.324+01 26 51.00         20.52GVEG190I52
     K24G05F KC2024 04 12.35925411 19 41.074+01 28 29.53         20.75GVEG190I52
     K24G05F KC2024 04 12.36682611 19 47.780+01 30 07.63         21.04GVEG190I52
     K24G05F 1C2024 04 12.87061 11 28 24.54 +03 23 48.4          20.9 VXEG190033
     K24G05F 1C2024 04 12.87136 11 28 25.31 +03 23 59.8          20.7 VXEG190033
     K24G05F 1C2024 04 12.87211 11 28 26.04 +03 24 11.3          20.3 VXEG190033
     K24G05F KB2024 04 12.89767511 28 53.63 +03 30 37.4          20.8 GXEG190I93
     K24G05F KB2024 04 12.90994111 29 05.56 +03 33 33.8          20.6 GXEG190I93
     K24G05F 7C2024 04 12.91774411 29 13.809+03 35 53.28         20.3 GVEG190Z84
     K24G05F 7C2024 04 12.92541311 29 21.203+03 37 43.06         20.7 GVEG190Z84
     K24G05F KC2024 04 13.10663911 32 41.30 +04 21 37.4          20.7 GVEG190H21
     K24G05F KC2024 04 13.11223211 32 46.96 +04 22 59.9          20.8 GVEG190H21
     K24G05F KC2024 04 13.11642611 32 51.17 +04 24 02.2          21.4 GVEG190H21
     K24G05F KC2024 04 13.13675611 33 17.791+04 29 30.77         20.80GVEG190I52
     K24G05F KC2024 04 13.13776911 33 18.788+04 29 46.07         21.00GVEG190I52
     K24G05F KC2024 04 13.13877111 33 19.796+04 30 01.15         21.19GVEG190I52
     K24G05F KC2024 04 13.13978111 33 20.869+04 30 15.70         20.93GVEG190I52
     K24G05F KC2024 04 13.14078411 33 21.841+04 30 30.96         20.86GVEG190I52
     K24G05F KC2024 04 13.14179011 33 22.892+04 30 46.22         20.96GVEG190I52
     K24G05F KC2024 04 13.14279211 33 23.908+04 31 00.91         20.60GVEG190I52
Observer details:
033 Karl Schwarzschild Observatory, Tautenburg.  Observers S. Melnikov, C.
    Hogner, F. Ludwig, M. Hartmann, B. Stecklum.  Measurer B. Stecklum.
    1.34-m f/3 Schmidt + CCD.
G96 Mt. Lemmon Survey.  Observer H. Groeller.  Measurers T. Beuden, V. F.
    Carvajal, D. Fay, J. B. Fazekas, D. C. Fuls, A. R. Gibbs, A. D. Grauer, H.
    Groeller, J. K. Hogan, R. A. Kowalski, S. M. Larson, G. J. Leonard, D.
    Rankin, R. L. Seaman, F. C. Shelly, K. W. Wierzchos.  1.5-m reflector +
    10K CCD.
H21 Astronomical Research Observatory, Westfield.  Observer R. Holmes.
    Measurers T. Linder, R. Holmes, L. Horn.  0.76-m f/3.0 astrograph + CCD.
I52 Steward Observatory, Mt. Lemmon Station.  Observers V. F. Carvajal, D.
    Rankin.  Measurers T. Beuden, V. F. Carvajal, D. Fay, J. B. Fazekas, D. C.
    Fuls, A. R. Gibbs, A. D. Grauer, H. Groeller, J. K. Hogan, R. A. Kowalski,
    S. M. Larson, G. J. Leonard, D. Rankin, R. L. Seaman, F. C. Shelly, K. W.
    Wierzchos.  1.0-m prime focus + CCD.
I93 St Pardon de Conques.  Observer F. Losse.  0.40-m f/3.7 reflector + CCD.
Z84 Calar Alto-Schmidt.  Observers F. Ocana, R. Kresken, M. Micheli, L.
    Conversi.  Measurers F. Ocana, M. Micheli.  0.8-m f/3 Schmidt + CCD.
Orbital elements:
2024 GF5                                                 Earth MOID = 0.0238 AU
Epoch 2024 Mar. 31.0 TT = JDT 2460400.5                 Veres                   
M 347.81811              (2000.0)            P               Q                  
n   0.44259856     Peri.   16.54054     -0.78176815     +0.62100504             
a   1.7052814      Node   202.14792     -0.58774232     -0.76408742             
e   0.4031244      Incl.    8.61795     -0.20832070     -0.17470878             
P   2.23           H   27.23          G   0.15           U   8                  
Residuals in seconds of arc
240412 G96  0.5+  0.8+    240412 033  0.1+  0.7+    240413 I52  0.2-  0.5-
240412 G96  0.2+  0.2-    240412 I93  0.3-  0.1-    240413 I52  0.7-  0.3-
240412 G96  0.6-  0.8-    240412 I93  0.3-  0.6+    240413 I52 (0.9-  0.2-)
240412 I52  0.2-  0.2+    240412 Z84  0.1+  0.2+    240413 I52  0.2-  0.7-
240412 I52  0.2+  0.2+    240412 Z84  0.1-  0.2-    240413 I52  0.9-  0.4-
240412 I52  0.8-  0.7-    240413 H21  0.1+  0.4+    240413 I52  0.5-  0.2-
240412 033  0.5-  0.8-    240413 H21  0.3+  0.1-    240413 I52  0.6-  0.5-
240412 033  0.1+  0.1-    240413 H21  0.2-  0.1-
Ephemeris:
2024 GF5                 a,e,i = 1.71, 0.40, 9                   q = 1.0178
Date    TT    R. A. (2000) Decl.     Delta      r    Elong.  Phase     V
2024 03 14    09 41 56.2 -22 06 57   0.1553  1.1218   142.7    32.5    24.8
...
2024 03 29    09 51 28.1 -18 52 03   0.08861 1.0659   138.0    38.8    23.7
...
2024 04 06    10 18 23.0 -12 37 05   0.05584 1.0439   139.7    38.4    22.6
...
2024 04 12    11 14 20.0 +00 14 36   0.03454 1.0315   146.9    32.0    21.3
2024 04 13    11 30 39.7 +03 58 02   0.03169 1.0298   148.5    30.6    21.1
2024 04 14    11 50 17.4 +08 20 13   0.02919 1.0283   149.6    29.6    20.9
...
2024 04 20    15 13 12.4 +37 39 54   0.02674 1.0210   127.3    51.5    21.3
...
2024 04 28    18 31 01.3 +39 26 45   0.05040 1.0177   101.2    76.1    23.4
...
2024 05 13    19 45 21.9 +33 35 16   0.1071  1.0312    98.2    75.9    25.1
M. P. C. Staff               (C) Copyright 2024 MPC           M.P.E.C. 2024-G190
    
    
More information about the Iaude
mailing list